Hourly Data Report for October 01, 2017

All times are specified in Local Standard Time (LST). Add 1 hour to adjust for Daylight Saving Time where and when it is observed.

PRINCE RUPERT
BRITISH COLUMBIA

54°17'10.000" N
130°26'41.000" W
35.40 m
1066482
71022
YPR

Related Data

No related data is available for this station

Download Data

Hourly Data (October 2017)
Hourly Data Report for October 1, 2017
Temp Definition
°C
Dew Point Temp Definition
°C
Rel Hum Definition
%
Wind Dir Definition
10's deg

Wind Spd Definition
km/h
Visibility Definition
km
Stn Press Definition
kPa
Hmdx Definition


Wind Chill Definition


Weather Definition


TIME
00:00 Legend Double Dagger 11.1 9.2 88 34 8 16.1 101.85     LegendNANA
01:00 Legend Double Dagger 10.7 9.2 91 33 8 16.1 101.92     LegendNANA
02:00 Legend Double Dagger 10.2 9.0 92 33 11 16.1 101.97     LegendNANA
03:00 Legend Double Dagger 8.9 8.3 96 35 8 16.1 102.02     LegendNANA
04:00 Legend Double Dagger 8.2 7.8 97 6 8 16.1 102.02     LegendNANA
05:00 Legend Double Dagger 6.2 5.9 98 4 5 16.1 102.07     LegendNANA
06:00 Legend Double Dagger 6.5 6.2 98 1 8 16.1 102.11     LegendNANA
07:00 Legend Double Dagger 6.7 6.4 98 6 8 16.1 102.15     LegendNANA
08:00 Legend Double Dagger 7.0 6.7 98 4 8 16.1 102.20     LegendNANA
09:00 Legend Double Dagger 9.4 8.5 94 33 8 16.1 102.21     LegendNANA
10:00 Legend Double Dagger 10.4 8.3 87 36 15 16.1 102.25     LegendNANA
11:00 Legend Double Dagger 11.0 8.9 87 33 13 16.1 102.27     LegendNANA
12:00 Legend Double Dagger 11.3 8.3 82 33 17 16.1 102.28     LegendNANA
13:00 Legend Double Dagger 11.4 8.5 82 34 18 16.1 102.32     LegendNANA
14:00 Legend Double Dagger 12.1 7.9 75 34 17 16.1 102.29     LegendNANA
15:00 Legend Double Dagger 12.2 8.5 78 33 15 16.1 102.27     LegendNANA
16:00 Legend Double Dagger 12.4 9.0 80 32 11 16.1 102.27     LegendNANA
17:00 Legend Double Dagger 12.6 8.9 78 32 9 16.1 102.29     LegendNANA
18:00 Legend Double Dagger 11.7 8.2 79 2 8 16.1 102.32     LegendNANA
19:00 Legend Double Dagger 9.9 7.8 87 6 9 16.1 102.33     LegendNANA
20:00 Legend Double Dagger 9.2 7.6 90   0 16.1 102.34     LegendNANA
21:00 Legend Double Dagger 7.9 7.0 94 6 9 16.1 102.33     LegendNANA
22:00 Legend Double Dagger 8.1 7.8 98 7 11 16.1 102.34     LegendNANA
23:00 Legend Double Dagger 7.8 7.5 98 6 8 16.1 102.35     LegendNANA

Notes on Data Quality.

Legend

  • E = Estimated
  • M = Missing
  • NA = Not Available
  • ‡ = Partner data that is not subject to review by the National Climate Archives
Date modified: